Temp
59 52 50 57 59 60 58 53 51 59 65 62 59 60 64 70 68 68 66 66 68 65 64 63 64 64 62 60 60 60 60 59 60 59 59 58 58 59 59 59 61 61 61 61
54 51 61 64 62 58 56 52 52 60 64 61 59 59 66 68 68 69 70 67 64 60 60 62 61 64 62 60 60 60 61 59 60 59 59 59 58 59 59 59 60 60 61 61
54 60 66 62 59 55 55 52 54 54 60 62 58 56 61 69 67 69 69 69 68 64 59 60 61 61 60 59 59 60 60 60 61 61 59 58 58 58 58 58 58 59 61 62
56 64 62 59 56 58 51 61 60 58 52 46 57 41 53 60 64 66 68 67 65 60 60 61 61 58 60 59 60 60 60 61 62 61 59 57 56 55 56 57 57 59 61 62
52 58 58 56 58 62 57 63 58 58 52 48 52 45 50 57 60 64 66 67 60 59 60 60 61 62 60 60 59 60 60 61 61 60 59 57 56 56 57 57 57 58 59 60
57 65 65 61 65 65 66 57 55 55 49 42 52 47 48 55 60 63 66 64 59 58 59 59 60 61 59 59 59 59 60 60 60 60 59 58 57 56 56 57 57 57 58 58
53 56 62 67 58 60 60 49 38 34 36 37 53 47 54 60 63 66 66 61 58 59 58 60 61 58 58 58 58 59 59 59 60 60 59 59 58 57 57 57 57 58 58 58
45 42 57 65 61 56 55 53 38 31 33 41 52 44 52 64 68 68 66 60 60 58 59 61 61 59 60 59 58 59 59 59 59 60 59 59 58 57 57 57 57 57 58 59
46 48 62 66 65 64 55 49 57 45 44 40 45 52 60 61 62 61 59 59 57 58 58 60 59 59 59 58 58 59 59 59 59 60 59 59 59 58 57 57 57 58 58 60
50 43 59 64 66 64 56 60 46 43 34 34 43 46 50 56 59 59 57 57 57 56 57 59 60 58 60 59 58 58 59 59 59 60 59 60 60 59 58 58 58 58 59 59
50 46 49 59 55 54 52 52 48 51 44 36 35 43 55 60 59 59 58 59 57 57 59 60 61 59 60 58 57 58 58 59 59 59 59 60 60 60 59 59 59 59 59 60
46 46 42 49 59 66 62 56 52 48 40 45 42 47 60 62 63 64 64 60 58 59 60 61 60 58 57 57 57 57 58 59 59 60 60 60 60 59 59 59 59 60 59 60
45 41 40 42 49 54 56 58 60 50 45 42 46 49 61 59 60 64 60 60 60 58 57 58 57 59 59 58 58 58 59 60 60 60 60 59 59 59 58 58 59 61 60 60
47 38 44 42 47 53 51 57 55 56 46 48 51 50 56 57 59 59 59 60 60 60 61 60 59 60 61 61 60 60 59 60 60 60 59 59 59 59 59 59 59 60 61 60
40 32 41 50 57 56 55 56 59 54 55 51 55 53 58 59 61 61 61 60 60 60 61 61 60 60 59 58 59 61 60 60 60 60 59 59 59 60 60 60 60 60 61 62
39 32 39 44 55 56 54 56 59 60 59 58 55 54 62 65 63 63 63 63 62 62 64 64 64 62 61 62 62 62 61 60 60 59 59 60 60 61 60 60 60 58 59 61
37 35 36 34 52 52 46 55 56 58 62 62 54 60 60 58 64 63 63 65 65 65 66 65 65 64 64 64 65 61 61 60 61 60 60 61 61 61 61 61 60 57 57 57
40 35 35 31 43 35 54 62 64 58 61 62 60 62 64 66 68 69 69 67 67 68 68 68 68 66 65 66 65 62 61 62 62 60 61 61 61 61 60 59 58 56 54 54
44 38 32 30 35 47 54 57 59 55 56 63 66 63 65 70 63 59 70 72 71 70 71 70 70 68 66 65 65 63 61 62 63 62 61 62 62 60 59 58 56 55 54 53
47 42 36 33 30 35 47 57 64 62 54 62 67 61 63 64 61 62 66 72 71 72 73 71 70 68 66 65 65 63 61 62 62 63 64 63 61 60 59 57 56 55 54 54
36 35 31 34 32 42 50 53 59 51 48 54 65 64 59 67 71 71 70 72 73 73 71 69 69 68 67 66 65 64 62 62 65 66 65 62 60 59 59 57 57 56 55 54
32 33 33 35 33 35 51 53 46 48 53 56 60 65 62 71 68 65 69 72 72 70 68 70 68 68 68 67 67 65 63 66 66 66 65 62 59 64 60 58 57 56 55 53
32 37 35 38 39 46 50 48 53 54 52 55 55 60 69 67 66 65 67 70 72 72 71 72 70 66 67 67 69 66 67 66 66 64 63 61 60 60 58 57 56 55 54 54
39 44 39 40 48 47 50 53 55 55 55 57 60 59 63 66 67 67 67 69 71 73 72 72 70 65 65 68 70 71 67 68 66 64 62 60 60 57 58 59 59 58 55 54
38 42 40 40 47 48 51 52 53 55 58 59 59 61 61 66 66 69 68 69 71 72 73 72 71 67 67 69 70 69 68 69 66 65 63 60 62 60 59 60 59 60 59 59
42 40 37 37 46 46 46 52 54 54 55 58 57 60 61 60 64 65 68 71 72 71 73 72 71 69 69 70 70 68 70 70 68 64 62 61 62 60 60 59 53 45 49 47
MSLP
1006.08 1006.74 1005.26 1005.87 1006.34 1006.44 1007.14 1007.10 1006.52 1004.87 1005.02 1004.72 1004.15 1003.48 1002.74 1001.77 1001.81 1001.46 1000.97 1001.00 1001.19 1001.73 1002.24 1002.84 1003.70 1004.45 1005.49 1006.48 1007.04 1007.59 1007.67 1007.82 1008.14 1008.44 1008.38 1008.36 1008.17 1008.06 1008.04 1008.02 1007.93 1007.76 1007.72 1007.84
1005.72 1002.80 1004.02 1005.23 1005.82 1006.66 1006.83 1006.65 1006.01 1004.73 1005.13 1005.01 1004.25 1003.51 1002.43 1001.75 1001.36 1000.76 1000.57 1000.48 1001.32 1001.93 1002.41 1003.11 1003.93 1004.57 1005.34 1006.35 1007.00 1007.43 1007.45 1007.76 1008.03 1008.08 1008.15 1008.11 1008.02 1007.95 1007.98 1007.92 1007.84 1007.56 1007.50 1007.61
1002.77 1000.69 1003.76 1004.29 1004.82 1005.66 1005.63 1005.83 1005.42 1005.17 1005.45 1004.90 1004.42 1003.33 1002.34 1000.77 1000.77 1000.25 1000.02 999.94 1000.43 1001.08 1002.29 1003.07 1003.94 1004.93 1005.60 1006.28 1006.80 1007.07 1007.34 1007.77 1007.83 1007.85 1008.00 1008.00 1007.92 1007.99 1008.05 1007.95 1007.79 1007.52 1007.46 1007.63
1002.83 1002.56 1002.27 1003.08 1003.37 1004.13 1004.51 1004.73 1005.00 1005.31 1005.88 1005.35 1004.21 1003.74 1002.54 1001.28 1000.75 1000.36 999.82 999.96 1000.15 1001.30 1002.29 1003.15 1004.11 1005.18 1005.60 1006.23 1006.69 1006.96 1007.43 1007.72 1007.63 1007.80 1007.96 1007.98 1008.18 1008.39 1008.20 1008.09 1007.84 1007.56 1007.41 1007.49
1001.08 1001.22 1001.90 1001.89 1001.78 1003.12 1003.09 1004.32 1004.88 1005.26 1005.63 1005.46 1004.68 1004.68 1002.21 1001.90 1001.15 1000.25 999.95 999.96 1000.45 1001.35 1002.20 1003.23 1004.13 1005.02 1005.55 1006.20 1006.64 1007.07 1007.53 1007.56 1007.63 1007.76 1007.82 1007.95 1008.10 1008.28 1008.19 1008.03 1007.86 1007.60 1007.44 1007.53
1000.52 1000.14 1000.37 999.27 1001.04 1001.93 1002.84 1004.11 1004.87 1005.29 1005.81 1005.17 1003.96 1004.48 1002.11 1001.55 1000.47 999.83 999.37 999.80 1000.85 1001.94 1002.73 1003.92 1004.68 1005.25 1005.76 1006.33 1006.81 1007.27 1007.50 1007.54 1007.62 1007.74 1007.81 1007.90 1008.07 1008.30 1008.22 1008.05 1007.96 1007.80 1007.63 1007.50
1000.39 999.97 999.42 999.74 1000.94 1001.84 1002.85 1004.32 1005.93 1005.82 1005.62 1004.46 1003.42 1003.51 1000.88 999.96 999.38 999.30 999.54 1000.17 1001.05 1001.93 1002.70 1003.84 1004.56 1005.38 1005.95 1006.48 1007.03 1007.35 1007.43 1007.59 1007.68 1007.82 1007.84 1007.94 1008.16 1008.26 1008.23 1008.08 1007.96 1007.96 1007.76 1007.57
1000.03 999.78 999.06 998.49 999.04 1000.37 1001.62 1003.08 1004.33 1005.04 1004.94 1003.99 1002.95 1001.70 999.22 998.44 998.42 998.48 999.06 1000.19 1001.14 1002.14 1002.94 1003.34 1004.27 1005.15 1005.92 1006.43 1006.97 1007.25 1007.36 1007.62 1007.66 1007.81 1007.84 1007.91 1008.09 1008.23 1008.23 1008.04 1007.98 1008.03 1007.88 1007.61
999.90 998.91 997.69 998.22 998.51 999.51 1000.58 1001.35 1002.94 1004.05 1004.12 1003.62 1002.05 1000.30 998.75 998.26 998.36 998.82 999.55 1000.43 1001.42 1002.10 1002.49 1003.31 1004.33 1005.01 1005.76 1006.33 1006.86 1007.03 1007.32 1007.51 1007.69 1007.77 1007.86 1007.93 1008.08 1008.19 1008.18 1008.10 1007.95 1007.99 1007.79 1007.64
999.64 999.21 997.91 997.37 998.09 998.15 998.78 1001.14 1002.48 1003.23 1003.69 1003.18 1001.45 1000.31 999.36 998.78 998.80 999.27 999.98 1000.58 1001.31 1002.16 1002.95 1003.49 1004.37 1004.96 1005.59 1006.07 1006.51 1006.90 1007.09 1007.32 1007.58 1007.76 1007.76 1007.88 1008.08 1008.10 1008.06 1008.14 1008.06 1008.00 1007.85 1007.78
1000.09 999.33 998.06 997.45 996.13 997.03 998.31 999.28 1000.22 1001.65 1002.30 1002.04 1001.50 999.49 998.34 998.18 998.51 999.12 999.67 1000.17 1001.08 1001.91 1002.51 1003.38 1004.15 1004.79 1005.31 1005.95 1006.44 1006.81 1007.17 1007.36 1007.63 1007.77 1007.77 1007.90 1008.11 1008.07 1008.13 1008.15 1008.25 1008.22 1008.12 1008.01
1001.23 999.82 998.73 997.27 996.17 996.35 997.15 998.24 999.18 1000.28 1000.98 1001.17 1000.76 998.59 997.55 997.26 997.74 998.24 998.93 999.98 1000.72 1001.61 1002.30 1003.20 1003.87 1004.62 1005.34 1005.93 1006.43 1006.75 1007.04 1007.21 1007.44 1007.65 1007.85 1007.98 1008.13 1008.21 1008.25 1008.35 1008.50 1008.45 1008.47 1008.29
1003.01 1000.49 999.75 998.11 996.93 996.23 996.20 996.53 997.28 998.75 999.65 999.90 1000.15 997.64 997.19 997.42 997.68 998.12 998.84 999.81 1000.65 1001.54 1002.45 1003.19 1003.88 1004.55 1005.17 1005.70 1006.14 1006.56 1006.80 1007.00 1007.35 1007.60 1007.91 1008.12 1008.28 1008.38 1008.44 1008.53 1008.60 1008.63 1008.54 1008.62
1004.13 1002.51 999.71 997.08 995.56 995.35 995.71 996.11 996.81 997.83 998.59 998.42 997.59 997.42 997.42 997.53 997.57 998.25 999.01 999.49 1000.22 1001.05 1001.97 1002.73 1003.54 1004.14 1004.69 1005.34 1005.79 1006.25 1006.59 1006.83 1007.22 1007.52 1007.91 1008.17 1008.29 1008.46 1008.54 1008.67 1008.77 1008.74 1008.64 1008.79
1004.99 1003.67 1001.12 998.19 996.80 995.59 995.07 995.20 995.72 996.00 996.36 996.85 996.53 996.83 996.48 996.52 996.80 997.61 998.18 999.39 1000.24 1000.95 1001.63 1002.20 1002.85 1003.66 1004.24 1004.98 1005.49 1005.87 1006.20 1006.66 1007.02 1007.46 1007.84 1008.13 1008.26 1008.49 1008.62 1008.78 1008.88 1008.91 1009.04 1009.17
1005.51 1004.30 1002.28 999.24 997.18 995.90 995.48 994.85 994.54 994.81 995.52 995.78 995.76 995.68 995.02 995.07 995.68 996.84 997.71 998.81 999.40 1000.01 1000.59 1001.26 1002.07 1002.98 1003.60 1004.28 1004.94 1005.48 1005.96 1006.37 1006.80 1007.33 1007.70 1008.02 1008.32 1008.56 1008.81 1008.89 1009.01 1009.25 1009.27 1009.48
1006.17 1005.12 1003.50 1000.13 997.61 996.97 995.84 993.83 993.84 993.82 993.81 994.22 994.40 994.25 994.52 995.27 995.51 996.14 997.01 997.80 998.11 998.78 999.58 1000.23 1001.00 1001.92 1002.74 1003.41 1004.14 1004.88 1005.51 1005.99 1006.58 1007.14 1007.52 1007.88 1008.29 1008.55 1008.86 1009.01 1009.27 1009.66 1009.80 1009.83
1005.65 1005.45 1004.76 1002.09 998.68 996.92 992.58 992.71 992.99 993.32 993.00 993.01 993.27 993.36 993.23 993.58 993.97 994.57 995.26 995.97 997.07 997.88 998.49 999.36 1000.18 1001.06 1001.90 1002.74 1003.50 1004.26 1005.09 1005.72 1006.37 1006.95 1007.34 1007.73 1008.11 1008.55 1008.95 1009.19 1009.55 1009.95 1010.26 1010.42
1004.90 1005.24 1004.74 1002.78 999.60 995.94 993.55 992.39 992.13 992.54 992.84 992.46 992.67 992.66 992.58 992.70 993.71 994.63 994.73 995.07 995.44 996.31 996.96 997.80 998.82 999.98 1001.25 1002.13 1003.00 1003.94 1004.83 1005.44 1006.10 1006.69 1007.07 1007.51 1007.93 1008.49 1009.10 1009.49 1009.80 1010.24 1010.50 1010.79
1003.37 1004.30 1004.48 1002.65 1000.49 997.25 996.10 994.09 992.28 992.56 992.95 992.18 992.27 992.42 992.58 993.05 993.94 993.89 994.02 994.64 995.27 995.67 996.20 997.29 998.48 999.63 1000.56 1001.59 1002.46 1003.57 1004.41 1005.07 1005.67 1006.16 1006.64 1007.18 1007.72 1008.27 1008.94 1009.52 1009.94 1010.23 1010.58 1010.85
1004.33 1004.89 1004.38 1003.37 1001.36 998.25 997.67 995.33 993.44 993.95 995.14 994.11 991.85 991.63 992.35 992.11 991.90 992.33 992.70 993.64 994.09 994.62 995.59 996.79 997.89 998.61 999.65 1000.84 1001.85 1002.94 1003.82 1004.34 1004.73 1005.50 1006.29 1006.91 1007.51 1008.01 1008.59 1009.25 1009.74 1010.23 1010.73 1011.10
1005.65 1005.20 1004.12 1003.28 1001.49 999.68 998.23 996.16 996.77 998.34 995.97 994.90 992.78 991.19 991.28 990.83 991.15 991.65 992.00 992.75 993.59 994.44 995.63 996.48 997.48 998.43 999.30 1000.11 1001.10 1002.25 1002.88 1003.50 1004.37 1005.20 1005.99 1006.73 1007.26 1007.78 1008.50 1009.02 1009.63 1010.19 1010.68 1011.25
1006.02 1005.57 1004.70 1003.34 1001.47 1000.42 1000.05 999.89 999.34 998.55 997.47 995.41 993.56 992.06 990.59 990.55 990.90 991.12 991.63 992.19 992.77 993.55 994.47 995.51 996.52 997.83 998.93 999.60 1000.17 1001.24 1002.08 1003.11 1004.00 1004.93 1005.66 1006.37 1007.12 1007.67 1008.30 1008.92 1009.52 1010.18 1010.62 1011.20
1005.28 1005.06 1004.31 1003.20 1001.36 1000.73 1000.26 999.94 999.33 998.33 997.52 995.95 994.01 992.26 990.90 990.31 990.14 990.73 991.15 991.73 992.32 992.98 993.91 994.88 996.18 997.52 998.47 999.12 999.56 1000.08 1001.44 1002.50 1003.49 1004.46 1005.33 1006.06 1006.87 1007.55 1008.13 1008.72 1009.29 1009.89 1010.42 1010.92
1005.47 1004.70 1004.10 1003.30 1001.99 1000.93 999.48 999.45 998.99 997.97 996.68 994.78 993.47 992.11 991.09 990.39 989.93 990.08 990.71 991.25 991.68 992.28 993.26 994.22 995.16 996.31 997.23 998.18 999.09 999.98 1000.84 1001.93 1002.99 1003.87 1004.86 1005.68 1006.41 1007.16 1007.90 1008.34 1008.82 1009.26 1009.67 1009.90
1004.71 1004.60 1004.37 1003.75 1003.42 1002.45 1000.94 999.81 999.34 998.27 996.74 995.28 994.15 992.61 991.71 990.85 990.51 989.97 990.18 990.41 991.03 991.90 992.76 993.74 994.52 995.38 996.50 997.49 998.44 999.33 1000.18 1001.11 1002.21 1003.46 1004.38 1005.13 1005.88 1006.69 1007.38 1008.10 1008.98 1009.23 1009.23 1009.60
Wind_Speed
9 9 20 26 21 12 10 6 10 17 2 8 7 11 12 14 8 11 11 10 11 7 3 7 12 15 12 8 8 8 8 6 3 1 1 0 1 1 2 2 5 5 4 4
6 32 21 16 15 15 10 11 16 19 6 6 8 15 14 13 10 10 12 9 6 3 6 9 12 13 13 11 8 8 7 6 3 2 2 1 1 2 2 2 3 4 3 4
30 19 17 20 16 16 18 18 17 20 3 7 7 14 13 18 5 8 10 9 6 11 11 13 15 12 11 10 9 8 8 6 4 3 1 1 1 2 2 2 2 3 1 4
20 18 23 17 24 16 19 14 17 18 4 8 4 7 6 9 13 7 9 9 8 6 8 13 13 10 11 8 7 8 7 6 4 4 1 2 1 1 2 2 2 4 1 2
13 18 23 20 19 21 17 12 9 13 8 5 7 3 8 4 8 10 9 9 4 8 11 13 15 12 7 8 8 7 7 5 4 3 2 2 0 1 1 1 2 3 2 2
9 9 24 21 17 20 8 2 2 11 3 11 18 7 6 7 9 7 5 3 7 8 11 9 8 8 7 6 7 7 7 4 4 4 3 4 4 1 1 2 2 3 2 1
5 13 5 11 15 7 12 7 4 3 5 7 8 6 15 7 9 9 9 7 9 12 15 15 15 9 8 9 8 6 7 5 5 4 5 4 4 2 1 2 2 3 2 0
15 12 22 15 15 13 14 15 7 6 4 5 7 8 10 10 9 9 4 6 9 10 9 15 14 11 10 10 8 7 7 5 5 4 4 3 3 1 0 2 1 1 1 2
13 16 2 19 6 16 17 17 12 2 3 2 5 7 9 1 3 3 9 10 10 11 13 14 11 10 10 9 9 9 7 5 6 4 4 3 2 1 2 3 2 1 1 2
3 5 9 18 20 17 10 11 8 6 6 5 5 3 7 5 7 4 7 9 8 8 9 10 10 9 9 9 7 7 7 8 6 5 4 3 2 2 2 2 3 3 3 3
4 2 3 9 16 19 9 11 5 8 5 6 1 7 8 9 9 12 10 10 11 12 13 12 11 9 10 7 7 7 7 7 6 5 3 2 1 2 2 2 2 3 3 4
6 6 5 11 5 19 19 16 10 12 9 6 3 9 5 11 14 14 14 10 8 9 11 12 11 10 8 8 7 8 7 7 6 6 4 2 3 4 3 3 2 3 5 4
9 6 7 7 2 3 24 21 21 3 4 8 11 11 3 4 7 10 11 9 9 9 10 8 8 11 10 9 7 7 7 7 6 6 6 4 4 4 3 3 2 3 4 5
5 5 14 15 3 6 14 22 9 17 10 8 12 3 4 6 9 7 7 8 11 12 13 12 10 11 10 10 9 8 7 7 7 6 6 6 4 4 4 3 3 3 3 5
4 5 6 18 20 9 4 12 22 19 13 16 13 9 9 12 13 12 10 8 10 11 13 13 13 11 10 8 7 8 7 7 7 7 6 6 5 4 5 3 3 3 5 3
5 5 7 7 17 23 18 5 20 22 15 12 7 8 9 11 5 10 14 15 15 15 15 15 13 13 13 13 11 10 8 8 8 7 7 6 5 5 5 4 2 4 3 5
5 4 10 7 14 8 16 27 12 12 19 17 16 12 8 4 12 15 13 16 17 17 16 17 17 16 14 14 13 11 10 7 8 8 6 6 6 5 5 5 5 5 4 4
10 1 3 7 2 12 19 12 17 12 8 14 3 11 15 15 17 17 18 21 17 15 16 15 14 14 13 12 11 8 10 10 9 8 8 6 6 6 6 6 6 5 3 4
18 5 3 3 5 6 7 4 12 10 13 11 17 9 11 14 7 2 11 17 21 20 18 16 16 15 12 14 12 11 11 11 10 9 9 7 7 7 6 6 7 4 4 3
11 11 6 2 4 8 6 15 2 6 13 9 14 10 10 12 12 8 13 14 13 15 15 14 14 12 14 13 12 13 12 12 12 11 11 9 7 8 8 7 7 4 3 5
3 4 9 5 4 5 19 20 9 13 3 18 14 13 10 13 11 13 16 17 18 17 15 11 15 17 16 14 15 14 13 15 14 12 10 9 8 8 8 7 5 6 5 5
2 5 4 4 5 3 19 8 10 12 17 16 13 11 11 15 9 8 17 19 17 14 11 13 14 13 14 16 16 15 15 13 12 12 11 9 8 7 6 9 6 6 7 6
4 2 2 4 3 2 10 5 8 12 13 16 14 12 13 16 9 11 12 14 16 18 16 15 15 13 13 16 17 17 13 13 13 12 11 9 9 7 8 8 7 5 6 6
3 4 4 6 2 10 13 9 15 15 14 17 13 13 8 8 11 12 11 12 14 14 15 14 15 14 14 15 17 17 14 15 14 13 11 9 10 7 7 5 7 7 6 5
4 3 0 6 9 15 2 16 18 21 21 21 20 13 8 7 8 12 12 13 14 15 14 15 17 16 17 16 15 13 15 16 14 13 11 10 9 11 9 8 8 8 8 9
2 2 1 2 12 8 12 15 18 18 22 23 20 16 15 11 2 4 10 14 14 14 14 14 15 15 15 16 15 14 16 17 15 12 10 9 9 8 8 8 4 7 3 11
Wind_Direction
173 194 204 206 206 224 236 221 246 259 191 233 244 263 271 278 296 266 259 244 243 238 193 148 146 142 137 146 140 158 149 151 136 195 151 316 295 283 256 256 265 275 255 226
166 227 206 203 208 216 242 247 253 284 272 244 270 269 276 278 263 237 261 261 248 198 145 142 144 145 147 152 154 155 145 150 174 169 199 199 211 275 254 263 283 286 270 211
203 224 199 203 205 202 222 229 246 250 336 264 285 282 284 283 249 260 246 233 224 202 165 156 153 150 146 147 157 152 153 168 185 171 132 17 31 15 344 299 317 317 302 203
232 224 195 196 212 196 224 214 242 259 277 262 128 284 296 285 303 287 258 237 241 171 145 148 148 153 153 154 147 140 153 174 182 162 142 101 142 255 254 272 298 306 330 230
211 182 212 211 204 199 231 223 225 247 232 259 247 271 264 232 284 280 264 247 215 154 145 152 153 155 148 142 151 147 161 179 163 160 147 100 105 244 285 300 329 330 322 301
214 202 200 212 201 207 205 250 264 254 236 253 263 185 226 233 222 258 246 222 142 127 124 124 136 141 133 131 136 151 166 174 164 137 102 104 107 170 4 340 345 333 313 312
161 222 222 175 205 172 201 127 259 281 220 226 236 188 244 248 233 223 259 179 153 146 145 151 158 151 143 149 157 165 174 156 154 155 110 119 124 182 354 322 4 353 306 353
201 209 209 177 196 190 210 180 170 199 208 194 181 231 249 214 230 230 210 147 143 146 159 158 159 153 158 160 164 174 175 144 164 153 125 128 154 221 7 349 4 357 336 322
198 230 174 188 150 172 200 206 179 34 291 126 221 281 322 33 262 158 144 143 166 163 159 156 155 155 159 161 174 178 163 169 171 168 140 154 154 162 49 29 36 360 1 11
276 191 217 202 196 202 171 159 172 198 202 219 268 220 222 213 223 165 155 175 165 140 147 150 162 158 169 171 173 175 166 176 173 169 170 162 171 167 99 86 69 58 21 46
199 142 263 195 203 180 175 178 176 151 195 170 208 256 209 206 184 187 198 190 158 172 162 163 167 165 173 158 165 176 167 166 169 172 190 154 127 86 84 89 92 54 41 55
285 207 205 236 252 193 203 198 186 192 194 241 161 260 238 197 195 185 191 173 169 172 159 166 165 156 159 171 168 174 173 171 178 177 164 162 108 108 104 76 82 64 61 62
331 279 253 340 214 183 198 197 215 144 99 190 200 253 191 212 196 205 164 161 162 151 151 156 146 164 172 176 168 168 173 178 162 164 148 142 130 130 123 101 93 69 84 71
336 280 236 216 240 137 195 203 171 192 216 210 226 184 177 183 159 160 169 168 163 165 171 168 163 175 174 179 171 168 176 172 157 157 151 151 163 145 135 125 106 102 96 93
35 276 306 268 253 275 188 188 201 203 196 200 227 200 213 191 172 189 180 144 151 166 174 180 173 178 172 171 172 170 170 168 156 156 152 169 161 138 131 135 129 111 96 79
347 282 322 259 244 240 250 249 201 214 209 228 192 224 204 204 178 144 169 179 177 183 186 181 177 177 178 179 181 170 172 171 156 159 170 158 153 145 139 138 131 92 99 104
293 336 351 279 230 239 252 238 224 208 205 196 207 221 152 151 169 175 173 187 183 186 185 183 182 182 181 182 179 173 174 157 162 161 165 162 155 157 153 143 121 104 110 95
253 85 237 275 203 206 248 220 222 211 214 216 157 177 178 178 188 184 188 181 189 188 188 189 184 183 183 180 178 152 153 168 167 163 164 166 159 153 136 146 137 118 112 111
221 177 265 251 250 274 234 234 193 173 246 212 212 206 189 185 108 228 195 190 188 187 191 188 183 179 166 174 169 156 156 166 169 173 168 173 162 142 134 143 144 131 128 110
249 186 195 278 237 211 31 331 347 117 240 207 210 189 179 139 176 224 184 193 198 200 182 176 172 167 165 173 160 159 165 165 179 178 177 168 162 148 148 149 157 145 145 134
89 124 226 263 287 296 345 323 295 180 258 320 209 184 168 179 183 198 183 190 191 184 180 157 163 173 174 162 161 171 168 181 182 176 164 162 163 160 154 149 149 140 135 126
351 311 183 199 241 255 348 17 46 312 319 300 284 199 177 187 178 168 175 186 182 176 151 165 163 173 169 166 167 174 187 178 167 166 165 167 163 166 154 153 145 147 137 139
209 199 321 272 269 50 347 345 320 319 320 320 306 304 212 180 180 170 182 179 182 172 173 172 170 159 168 171 176 178 181 162 160 162 170 168 164 160 160 156 154 143 148 147
218 223 238 309 40 333 313 315 340 337 328 319 313 295 230 198 173 178 164 178 175 175 173 168 155 162 170 177 182 187 161 164 162 166 172 164 166 160 162 160 163 163 166 159
216 231 200 281 285 305 216 333 329 329 331 346 342 356 334 219 190 167 174 173 175 174 168 167 171 171 178 175 178 170 163 164 170 169 169 171 174 176 172 179 177 181 189 179
171 259 285 331 309 289 278 303 317 331 336 339 340 350 8 18 35 169 172 173 167 169 168 174 178 170 171 173 173 167 168 169 169 172 171 172 172 177 177 172 145 44 188 190